Home > Weather > Olpe > Past weeks

Flag for Germany Past Weather in Olpe, North Rhine-Westphalia, Germany — Yesterday and Last 2 Weeks

Now
54 °F

Cool.


Feels Like: 54 °F
Forecast: 48 / 75 °F
Wind: 2 mph from North

Location: Koeln / Bonn

Current Time: Aug 30, 2016 at 3:36:51 AM

Latest Report: Aug 30, 2016 at 2:50 AM


Visibility: N/A

Pressure: 30.24 "Hg

Humidity: 100%

Dew Point: 54 °F

Location of OlpeLocation

Past Weather in Olpe — Graph

°F

Olpe Temperature Yesterday

Maximum temperature yesterday: 70 °F (at 10:50 AM)
Minimum temperature yesterday: 59 °F (at 5:20 AM)
Average temperature yesterday: 65 °F

High & Low Weather Summary for the Past Weeks

 TemperatureHumidityPressure
High95 °F (Aug 27, 3:50 PM)100% (Aug 15, 3:20 AM)30.36 "Hg (Aug 15, 3:20 AM)
Low48 °F (Aug 16, 6:50 AM)28% (Aug 25, 4:50 PM)29.77 "Hg (Aug 18, 2:20 PM)
Average69 °F69%30.04 "Hg
* Reported Aug 15 2:20 AM — Aug 30 2:20 AM, Olpe, Weather by CustomWeather, © 2016

Note: Actual official high and low records may vary slightly from our data, if they occured in-between our weather recording intervals... More about our weather records

Advertising

Olpe Weather History for the Previous 24 Hours

Scroll right to see more
 ConditionsComfort  
Time TempWeatherWind HumidityBarometerVisibility
2:20 AM
Tue, Aug 30
55 °FFog.2 mph94%30.24 "HgN/A
1:50 AM55 °FFog.2 mph100%30.24 "HgN/A
1:20 AM55 °FFog.2 mph100%30.24 "HgN/A
12:50 AM59 °FFog.1 mph94%30.24 "HgN/A
12:20 AM59 °FFog.2 mph94%30.24 "HgN/A
11:50 PM
Mon, Aug 29
59 °FFog.2 mph100%30.24 "HgN/A
11:20 PM61 °FFog.3 mph94%30.24 "HgN/A
10:50 PM61 °FFog.5 mph94%30.21 "HgN/A
10:20 PM61 °FPassing clouds.No wind94%30.21 "HgN/A
9:50 PM63 °FPassing clouds.1 mph88%30.21 "HgN/A
9:20 PM63 °FSunny.2 mph94%30.18 "Hg10 mi
8:50 PM63 °FPartly sunny.1 mph94%30.18 "HgN/A
8:20 PM66 °FScattered clouds.2 mph83%30.15 "HgN/A
7:50 PM66 °FScattered showers. Partly sunny.3 mph83%30.15 "HgN/A
7:20 PM68 °FBroken clouds.5 mph78%30.15 "HgN/A
6:50 PM68 °FPartly sunny.5 mph78%30.15 "HgN/A
6:20 PM68 °FPartly sunny.6 mph78%30.15 "HgN/A
5:50 PM68 °FPartly sunny.3 mph73%30.15 "HgN/A
5:20 PM68 °FPartly sunny.2 mph73%30.15 "HgN/A
4:50 PM68 °FPartly sunny.5 mph73%30.12 "HgN/A
4:20 PM68 °FPartly sunny.2 mph78%30.12 "HgN/A
3:50 PM66 °FBroken clouds.1 mph83%30.12 "HgN/A
3:20 PM66 °FLight rain. Broken clouds.7 mph83%30.12 "HgN/A
2:50 PM66 °FLight rain. Broken clouds.8 mph83%30.12 "HgN/A
2:20 PM64 °FLight rain. Broken clouds.9 mph88%30.12 "HgN/A
1:50 PM68 °FBroken clouds.9 mph78%30.12 "HgN/A
1:20 PM68 °FBroken clouds.12 mph69%30.09 "HgN/A
12:50 PM70 °FBroken clouds.13 mph64%30.09 "HgN/A
12:20 PM70 °FBroken clouds.10 mph64%30.09 "HgN/A
11:50 AM70 °FBroken clouds.10 mph64%30.09 "HgN/A
11:20 AM70 °FBroken clouds.12 mph69%30.09 "HgN/A
10:50 AM70 °FBroken clouds.12 mph64%30.09 "HgN/A
10:20 AM68 °FBroken clouds.12 mph69%30.07 "HgN/A
9:50 AM66 °FBroken clouds.10 mph73%30.07 "HgN/A
9:20 AM66 °FBroken clouds.12 mph73%30.07 "HgN/A
8:50 AM66 °FBroken clouds.7 mph78%30.07 "HgN/A
8:20 AM64 °FPartly sunny.5 mph78%30.07 "HgN/A
7:50 AM63 °FBroken clouds.1 mph83%30.07 "HgN/A
7:20 AM61 °FPartly cloudy.5 mph88%30.04 "HgN/A
6:50 AM63 °FPartly cloudy.2 mph77%30.04 "HgN/A
6:20 AM61 °FPassing clouds.2 mph88%30.04 "HgN/A
5:50 AM61 °FPassing clouds.2 mph88%30.04 "HgN/A
5:20 AM59 °FPassing clouds.7 mph94%30.04 "HgN/A
4:50 AM61 °FClear.5 mph88%30.04 "Hg10 mi
4:20 AM61 °FClear.2 mph88%30.04 "Hg10 mi
3:50 AM61 °FClear.2 mph83%30.04 "Hg10 mi
3:20 AM61 °FClear.2 mph83%30.01 "Hg10 mi
Weather by CustomWeather, © 2016

See weather overviewHow to use our weather pages